weather.gov     
National Weather Service

Regional Weather Roundup
NWS Homepage
This page is being discontinued on March 12, 2014.
The same data is available at this site. Please update your bookmarks.
Thank you, and we apologize for the inconvenience.
Please send an email to SR-SRH.Webmaster@noaa.gov with any concerns.


Current Version
Previous Version:    01  02  03  04  05  06  07  08  09  10  11  12  13  14  15  16  17  18  19  20  21  22  23  24  25  26  
[Printable]
741
ASUS42 KTBW 201210
RWRFL
FLORIDA REGIONAL WEATHER ROUNDUP
NATIONAL WEATHER SERVICE TAMPA BAY RUSKIN FL
800 AM EDT WED AUG 20 2014

NOTE: "FAIR" INDICATES FEW OR NO CLOUDS BELOW 12,000 FEET WITH NO
SIGNIFICANT WEATHER AND/OR OBSTRUCTIONS TO VISIBILITY.


FLZ001>010-012>015-112-114-115-201300-
PANHANDLE FLORIDA

CITY           SKY/WX    TMP DP  RH WIND       PRES   REMARKS
PENSACOLA      CLEAR     73  70  90 CALM      30.04R
PENSACOLA NAS  PTCLDY    73  71  93 CALM      30.04R
MILTON NAS     MOCLDY    71  68  90 CALM      30.06R
CRESTVIEW      MOCLDY    71  70  96 CALM      30.07R
DUKE FIELD     FAIR      71  71 100 N2        30.06R
VALPARAISO     PTCLDY    73  70  90 N3        30.05R
MARY ESTHER    CLEAR     73  68  85 N3        30.04R
TRI COUNTY     FAIR      71  70  96 CALM      30.06R FOG
PANAMA CITY    FAIR      74  71  91 CALM      30.05R
TYNDALL AFB    CLEAR     78  76  94 NW2       30.05R
APALACHICOLA   CLEAR     81  76  84 CALM      30.04R

STATION/POSITION SKY/WX   TEMP    WIND        PRES    WAVE   SWELL
                          AIR SEA DIR/SP/G            HT/PER HT/PER
                          (F)     (DEG/KT/KT) (MB)    (FT/S) (FT/S)
30.1N   87.6W              85 85  270/ 10/ 12 1017.0R   2/ 4
29.2N   88.2W              85 87  260/  6/  8 1017.5
28.8N   86.0W              85 87  290/ 10/ 12 1017.3R   1/ 3   2/ 5
PANAMA CITY BEAC           79 79  340/  4/  5 1017.3R
CAPE SAN BLAS    NOT AVBL
TOWER C                    84     280/ 11/ 12 1017.6R
28.5N   84.5W              85 86  290/  8/ 10 1017.6R   2/ 5   2/ 5

$$
FLZ011-016>038-118-127-128-134-139-239-201300-
NORTH FLORIDA

CITY           SKY/WX    TMP DP  RH WIND       PRES   REMARKS
MARIANNA       PTCLDY    72  72 100 CALM      30.05R
TALLAHASSEE    PTSUNNY   75  73  93 CALM      30.05R
PERRY          SUNNY     73  73 100 CALM      30.06R FOG
CROSS CITY       N/A     76  74  93 CALM      30.05R
GAINESVILLE    SUNNY     76  75  97 W5        30.06R
MAYPORT NAS    MOSUNNY   80  74  81 W7        30.03R
JACKSONVILLE   MOSUNNY   76  75  97 W6        30.03R
JAX NAS        MOSUNNY   81  75  82 W7        30.04R
JAX CRAIG      SUNNY     80  74  81 W7        30.04R
JAX CECIL      SUNNY     77  75  94 W7        30.04R
FERNANDINA BEA FAIR      79  72  78 W8        30.02R
ST AUGUSTINE   SUNNY     79  75  87 W7        30.05R

STATION/POSITION SKY/WX   TEMP    WIND        PRES    WAVE   SWELL
                          AIR SEA DIR/SP/G            HT/PER HT/PER
                          (F)     (DEG/KT/KT) (MB)    (FT/S) (FT/S)
SHELL POINT                81     250/  7/  8   N/A
KEATON BEACH               84     270/ 11/ 12 1017.7R
CEDAR KEY                  85     280/  5/  7 1018.1R
FERNANDINA                 77 84  260/  7/  9 1016.3R
30.7N   81.3W                 81                N/A     2/ 2
MAYPORT                    80 83  280/  9/ 11   N/A
31.4N   80.9W              80 85  270/ 14/ 16 1015.9R   2/ 3   2/ 8
ST AUGUSTINE               80     260/  3/  4 1018.0R

$$
FLZ040-043>046-052-053-057-058-063-144-201300-
INTERIOR CENTRAL FLORIDA

CITY           SKY/WX    TMP DP  RH WIND       PRES   REMARKS
OCALA          MOSUNNY   72  72 100 CALM      30.06R
LEESBURG       SUNNY     78  76  93 CALM      30.07R
SANFORD        SUNNY     79  77  94 SW3       30.06R
ORLANDO EXEC   SUNNY     80  77  90 CALM      30.06R
ORLANDO INTL   MOSUNNY   77  76  96 CALM      30.07R
KISSIMMEE      SUNNY     77  77 100 CALM      30.07R
WINTER HAVEN   SUNNY     77  75  93 SW3       30.08R
LAKELAND       SUNNY     79  72  78 CALM      30.07R
BARTOW         MOSUNNY   73 N/A N/A CALM      30.07R
OKEECHOBEE       N/A     77  73  88 MISG      30.07R

$$
FLZ041-047-054-059-064-141-147-201300-
EAST CENTRAL FLORIDA

CITY           SKY/WX    TMP DP  RH WIND       PRES   REMARKS
ORMOND BEACH   SUNNY     75  73  94 SW5       30.05R
DAYTONA BEACH  MOSUNNY   75  74  96 S3        30.06R
DELAND         SUNNY     75  73  94 CALM      30.07R
NEW SMYRNA BEA SUNNY     77  75  94 W5        30.06R
JFK SPACE CTR  SUNNY     78  78 100 CALM      30.05R
TITUSVILLE     SUNNY     75  75 100 CALM      30.06R
CAPE CANAVERAL SUNNY     76  74  93 CALM      30.05R
PATRICK AFB    SUNNY     82  77  84 NW5       30.05R
MELBOURNE      SUNNY     80  77  90 CALM      30.06R
VERO BEACH     SUNNY     77  75  93 SW3       30.06R
FT PIERCE      SUNNY     79  75  87 CALM      30.06R
STUART         MOSUNNY   79  75  89 CALM      30.07R

STATION/POSITION SKY/WX   TEMP    WIND        PRES    WAVE   SWELL
                          AIR SEA DIR/SP/G            HT/PER HT/PER
                          (F)     (DEG/KT/KT) (MB)    (FT/S) (FT/S)
28.5N   80.2W              82 82  330/  6/  8 1017.3R
28.9N   78.5W              81 85  240/ 12/ 14 1017.6F   3/ 4   2/ 8
TRIDENT PIER               81 81  330/  2/  4 1017.1R
28.4N   80.5W                 80                N/A     1/ 8
27.6N   80.2W                 82                N/A     1/ 8

$$
FLZ050-056-061-142-242-148-248-149-249-151-251-155-255-
160-260-201300-
WEST CENTRAL FLORIDA

CITY           SKY/WX    TMP DP  RH WIND       PRES   REMARKS
CRYSTAL RIVER  FAIR      73  72  94 CALM      30.06R
INVERNESS      FAIR      73  70  88 CALM      30.06R
BROOKSVILLE    MOSUNNY   76  74  93 CALM      30.07R
ZEPHYRHILLS    FAIR      70  70 100 CALM      30.07R
CLEARWATER     SUNNY     80  76  87 CALM      30.06R
TAMPA INTL     MOSUNNY   83  74  74 CALM      30.06R
TAMPA EXEC     SUNNY     77  73  88 CALM      30.07R
MACDILL AFB    SUNNY     76  75  97 E3        30.06R
ST PETERSBURG  SUNNY     84  76  76 CALM      30.04R
SARASOTA       SUNNY     81  75  82 E3        30.04R
VENICE           N/A    N/A N/A N/A MISG        N/A

STATION/POSITION SKY/WX   TEMP    WIND        PRES    WAVE   SWELL
                          AIR SEA DIR/SP/G            HT/PER HT/PER
                          (F)     (DEG/KT/KT) (MB)    (FT/S) (FT/S)
CEDAR KEY                  85     280/  5/  7 1018.1R
28.5N   84.5W              85 86  290/  8/ 10 1017.6R   2/ 5   2/ 5
27.3N   84.3W                 88                N/A     1/ 8
CLEARWATER BEACH           85 89  290/  4/  6 1017.3R
MIDDLE TAMPA BAY           86      40/  1/  2 1017.7R
VENICE                     81 89   70/  5/  6 1017.2R

$$
FLZ066-069-070-075>078-162-262-165-265-201300-
SOUTHWEST FLORIDA AND KEYS

CITY           SKY/WX    TMP DP  RH WIND       PRES   REMARKS
PUNTA GORDA    SUNNY     79  76  90 E3        30.07R
FT MYERS       MOSUNNY   81  76  84 NE6       30.05R
SOUTHWEST INTL PTSUNNY   80  75  84 NE6       30.06R
NAPLES         MOSUNNY   82  82 100 NE6       30.05R HX  96
MARCO ISLAND   SUNNY     82  77  83 NE5       30.05R
MARATHON       SUNNY     86  78  77 CALM      30.03R HX  98
KEY WEST NAS   MOSUNNY   86  77  74 E7        30.03R HX  97
KEY WEST INTL  SUNNY     87  76  69 E7        30.04R HX  97

STATION/POSITION SKY/WX   TEMP    WIND        PRES    WAVE   SWELL
                          AIR SEA DIR/SP/G            HT/PER HT/PER
                          (F)     (DEG/KT/KT) (MB)    (FT/S) (FT/S)
VENICE                     81 89   70/  5/  6 1017.2R
NAPLES                     82      60/  3/  5 1018.1R
DRY TORTUGAS               86     140/  6/  7 1017.1R
NW FL BAY                  86      40/  4/  5 1016.8R
SAND KEY                   86     130/  7/  9 1016.8R
SOMBRERO KEY               86     100/  2/  3 1017.9R
LONG KEY                   86 90   CALM  /  1 1017.9R
MOLASSES REEF              87 88   CALM  /  3 1017.4R

$$
FLZ067-068-071>074-168-172>174-201300-
SOUTHEAST FLORIDA

CITY           SKY/WX    TMP DP  RH WIND       PRES   REMARKS
W PALM BEACH   MOSUNNY   81  77  88 CALM      30.05R
FT LAUDER-EXEC MOSUNNY   83  78  85 CALM      30.05R
FT LAUDERDALE  MOSUNNY   85  75  72 CALM      30.04R
POMPANO BEACH  MOSUNNY   84  76  76 CALM      30.06R
PEMBROKE PINES SUNNY     82  78  88 CALM      30.06R
OPA LOCKA      SUNNY     83  76  79 NW3       30.05R
MIAMI          MOSUNNY   84  75  74 VRB3      30.05R
WEST KENDALL   SUNNY     82  77  84 CALM      30.05R
HOMESTEAD      SUNNY     80  77  91 CALM      30.05R

STATION/POSITION SKY/WX   TEMP    WIND        PRES    WAVE   SWELL
                          AIR SEA DIR/SP/G            HT/PER HT/PER
                          (F)     (DEG/KT/KT) (MB)    (FT/S) (FT/S)
PORT EVERGLADES            83     270/  3/  4 1017.5
VIRGINIA KEY               84 89  290/  3/  5   N/A
LAKE WORTH                 83 86  230/  3/  4 1017.5R
FOWEY ROCKS                87 87  210/  2/  3 1017.8R
SETTLEMENT POINT           85     240/  4/  5 1018.5R

$$





U.S. Dept. of Commerce
NOAA National Weather Service
1325 East West Highway
Silver Spring, MD 20910
E-mail: w-nws.webmaster@noaa.gov
Page last modified: May 16, 2007
NATIONAL WEATHER SERVICE: for Safety, for Work, for Fun - FOR LIFE